Flag for Mexico Weather past 2 weeks in Cozumel, Quintana Roo, Mexico

Now
73 °F

Passing clouds.


Feels Like: 68 °F
Forecast: 84 / 87 °F
Wind: No wind

Location: Cozumel Civ / Mil

Current Time: Aug 20, 2014 at 7:40:07 AM

Latest Report: Aug 20, 2014 at 6:49 AM


Visibility: 7 mi

Pressure: 29.96 "Hg

Humidity: 100%

Dew point: 73 °F

Location of CozumelLocation

Historic Weather in Cozumel — Graph

°F

Cozumel temperature yesterday

Maximum temperature yesterday: 88 °F (at 12:45 PM)
Minimum temperature yesterday: 70 °F (at 3:48 AM)
Average temperature yesterday: 79 °F

Past Weeks' High & Low Weather Summary

 TemperatureHumidityPressure
High93 °F (Aug 13, 2:46 PM)100% (Aug 5, 5:46 AM)30.09 "Hg (Aug 5, 5:46 AM)
Low70 °F (Aug 5, 5:46 AM)55% (Aug 18, 2:48 PM)29.91 "Hg (Aug 18, 6:44 PM)
Average80 °F86%30.00 "Hg
* Reported Aug 5 5:46 AM — Aug 20 5:43 AM, Cozumel, Weather by CustomWeather, © 2014

Note: Actual official high and low records may vary slightly from our data, if they occured in-between our weather recording intervals... More about our weather records

Advertising

Cozumel weather history for previous 24 hours

 ConditionsComfort  
Time TempWeatherWind HumidityBarometerVisibility
5:43 AM
Aug 20
73 °FPassing clouds.3 mph100%29.97 "Hg7 mi
5:05 AM75 °FPassing clouds.3 mph100%29.95 "Hg7 mi
2:43 AM73 °FPassing clouds.No wind100%29.97 "Hg7 mi
1:41 AM75 °FPassing clouds.No wind100%29.98 "Hg7 mi
12:50 AM75 °FPassing clouds.No wind100%29.97 "Hg7 mi
11:46 PM
Aug 19
75 °FPassing clouds.No wind100%30.00 "Hg7 mi
10:50 PM75 °FPassing clouds.No wind100%30.00 "Hg7 mi
9:49 PM75 °FPassing clouds.No wind100%30.02 "Hg7 mi
8:43 PM77 °FPassing clouds.No wind94%29.98 "Hg7 mi
7:43 PM79 °FScattered clouds.5 mph89%29.97 "Hg7 mi
6:40 PM82 °FPartly sunny.8 mph79%29.97 "Hg8 mi
5:40 PM84 °FPartly sunny.9 mph74%29.96 "Hg8 mi
4:43 PM88 °FScattered clouds.8 mph66%29.96 "Hg8 mi
3:49 PM88 °FScattered clouds.12 mph66%29.98 "Hg8 mi
2:45 PM86 °FPartly sunny.10 mph75%29.97 "Hg8 mi
1:49 PM88 °FPartly sunny.8 mph70%29.98 "Hg8 mi
12:45 PM88 °FPartly sunny.8 mph66%29.98 "Hg8 mi
11:51 AM86 °FPartly sunny.12 mph75%30.00 "Hg8 mi
10:54 AM86 °FPartly sunny.7 mph70%30.01 "Hg8 mi
9:55 AM84 °FPartly sunny.8 mph79%30.02 "Hg8 mi
8:52 AM82 °FScattered clouds.10 mph100%30.00 "Hg8 mi
7:48 AM75 °FBroken clouds.No wind100%29.99 "Hg8 mi
Weather by CustomWeather, © 2014

See weather overviewHow to use our weather pages